Latest  Newer  Older  Last 2 hours slideshow  Last 24 hours slideshow  Refresh every 5 minutes 
Current image  Latest image  Rain/snow radar  Cloud coverage sat images 

All time is UTC (add 2 hours to UTC in wintertime, 3 hours to UTC in DST for Latvia local time)

2020/02/22 21:50 EVRA 222150Z 23009KT 200V280 9999 FEW032 04/01 Q0991 R18/290195 NOSIG
2020/02/22 21:50 EVLA 222150Z AUTO 25026KT 9999 FEW020/// SCT028/// BKN180/// 05/02 Q0993
2020/02/22 21:50 EVVA 222150Z AUTO 26024G35KT 9999 FEW025 05/03 Q0989
2020/02/22 21:50 EYKA 222150Z 25017KT 210V290 9999 -RA SCT025 BKN036 OVC047 06/02 Q0999 R08/290095
2020/02/22 21:50 EYPA 222150Z AUTO 27014G25KT 240V310 9999 -UP BKN017/// 04/02 Q0997 REUP
2020/02/22 21:50 EYSA 222150Z 23018G36KT 200V260 5000 TSSHRA FEW017CB BKN021 OVC038 05/03 Q0994 R14L/29//95 R14R/29//95 WHT NOSIG
2020/02/22 21:50 EYVI 222150Z 23013KT 9999 -SHRA BKN028CB 05/02 Q1000 R19/2///95 NOSIG
2020/02/22 08:50 EEKA 220850Z 20016KT 160V240 9000 RA BKN009 OVC016 05/04 Q0995
2020/02/22 21:50 EEKE 222150Z AUTO 26016G29KT 230V290 9999NDV FEW028 05/01 Q0985
2020/02/22 13:50 EEPU 221350Z 19020G36KT 160V230 3600 -RA BR BKN008 OVC014 04/03 Q0991
2020/02/22 21:50 EETN 222150Z 24017G28KT 9999 FEW016 SCT030 OVC042 03/01 Q0978 R08/290295 TEMPO 26020G30KT
2020/02/22 21:50 EETU 222150Z AUTO 23018G30KT 9999 DZ FEW016/// BKN023/// BKN032/// 04/02 Q0983 RESHUP RERA
   RIGA AIRPORT     EVRA               56 55N  023 58E   10   X     T          6 LV
   LIEPAJA INTL     EVLA        26406  56 31N  021 06E    4   X                8 LV
   VENTPILS         EVVA               57 21N  021 33E    6   X                8 LV
   KAUNAS           EYKA               54 54N  023 55E   77   X     T          6 LT
   PALANGA INTL     EYPA               55 55N  021 03E   10   X                6 LT
   SIAULIAI INTL    EYSA               55 54N  023 24E  135   X     T          6 LT
   VILNIUS INTL     EYVI        26730  54 38N  025 17E  197   X     T          6 LT
   KARDLA           EEKA        26116  58 59N  022 50E    4   X                8 EE
   KURESSAARE       EEKE               58 14N  022 31E    4   X                8 EE
   PARNU            EEPU               58 25N  024 28E   14   X                8 EE
   TALLINN          EETN        26038  59 24N  024 49E   40   X     T          8 EE
   TARTU            EETU               58 19N  026 41E   67   X                8 EE